Terminal Aerodrome Forecast
Issued by NWS

Home | Current Version | Previous Version | Text Only | Print | Product List | Glossary On
Versions: 1 2 3 4 5 6 7 8 9 10 11 12 13 14 15 16 17 18 19 20 21 22 23 24 25 26
796
FTUS43 KDLH 261058 AAB
TAFHYR
TAF AMD
KHYR 261058Z 2611/2706 20004KT 6SM -SN BKN020 OVC060
     FM261600 24004KT 5SM -SN BR OVC015
      TEMPO 2616/2619 1 1/2SM -SN
     FM262000 29006KT P6SM BKN030
     FM262300 28004KT P6SM BKN100=

USA.gov is the U.S. government's official web portal to all federal, state and local government web resources and services.